Tracking 19717 objects as of 25-Jun-2019
HD Live streaming from Space Station
objects crossing your sky now

CZ-4 DEB

Track CZ-4 DEB now!
10-day predictions


NORAD ID: 29039
Int'l Code: 1999-057NJ
Perigee: 666.6 km
Apogee: 757.3 km
Inclination: 98.3 °
Period: 98.9 minutes
Semi major axis: 7082 km
RCS: 0.0108 m2 (small)
Launch date: October 14, 1999
Source: People's Republic of China (PRC)
Launch site: Taiyaun Space Center, China (TSC)

Note: This is SATELLITE DEBRIS
aabbcc
Your satellite tracking list
Your tracking list is empty




NASA's NSSDC Master Catalog

Two Line Element Set (TLE):
1 29039U 99057NJ  19174.40352250  .00000265  00000-0  69122-4 0  9993
2 29039  98.3405 148.9380 0064001 354.4714 158.1578 14.56410434874888
Source of the keplerian elements: AFSPC